Regional Weather Roundup
Issued by NWS Wakefield, VA

Home | Current Version | Previous Version | Graphics & Text | Print | Product List | Glossary On
Versions: 1 2 3 4 5 6 7 8 9 10 11 12 13 14 15 16 17 18 19 20 21 22 23 24 25 26 27 28 29 30 31 32 33 34 35 36 37 38 39 40 41 42 43 44 45 46 47 48 49 50
000
ASUS41 KAKQ 022015
RWRAKQ

REGIONAL WEATHER ROUNDUP
NATIONAL WEATHER SERVICE WAKEFIELD VA
400 PM EDT THU JUL 02 2015

Note: "fair" indicates few or no clouds below 12,000 feet with no
significant weather and/or obstructions to visibility. * = Denotes
station may not report precipitation (e.g., rain,snow,etc.),
thunder or fog.

VAZ042-051-052>054-056-022100-
NORTHERN VIRGINIA

CITY           SKY/WX    TMP DP  RH WIND       PRES   REMARKS
WASH NATIONAL  CLOUDY    77  66  69 N7        29.90S
DULLES         CLOUDY    72  62  71 NW5       29.91S
FORT BELVOIR   PTSUNNY   74  65  73 NW5       29.90S
QUANTICO       CLOUDY    75  66  73 N8        29.91R
FREDERICKSBRG* CLOUDY    78  64  63 NE5       29.89S
STAFFORD*      CLOUDY    74  65  74 NW6       29.95R
WARRENTON      CLOUDY    74  67  79 N3        29.91S
CULPEPER*      CLOUDY    72  65  80 N3        29.92F
MANASSAS*      CLOUDY    73  64  73 N6        29.91S
LEESBURG*      CLOUDY    72  70  94 W3        29.93S
WINCHESTER     CLOUDY    73  66  78 S5        29.93S
FRONT ROYAL*   MOCLDY    72  64  78 SW3       29.92F
LURAY*         FAIR      73  64  73 CALM      29.94S
$$

VAZ048-049-060>072-079>083-022100-
CENTRAL AND SOUTH CENTRAL VIRGINIA

CITY           SKY/WX    TMP DP  RH WIND       PRES   REMARKS
RICHMOND       CLOUDY    80  73  79 N12       29.86S
CHESTERFIELD*  NOT AVBL
PETERSBURG*    LGT RAIN  81  74  80 NW9       29.87S
HANOVER        PTSUNNY   77  68  73 N7        29.89R
TAPPAHANNOCK*  PTSUNNY   77  65  67 N5        29.88S
QUINTON*       MOCLDY    77  75  92 NW6       29.85F
CHARLOTTSVILLE CLOUDY    75  65  70 N3        29.92S
GORDONSVILLE*  CLOUDY    73  64  73 N3        29.91F
ORANGE*        CLOUDY    73  64  73 NW5       29.93S
LOUISA*        CLOUDY    75  64  69 N3        29.91R
BUMPASS*       CLOUDY    73  64  72 CALM      29.91R
FARMVILLE*     CLOUDY    78  65  64 N5        29.89R
CREWE*         CLOUDY    75  71  86 NW5       29.88S
FORT PICKETT*  MOCLDY    77  71  82 W13G20    29.88S
CHASE CITY*    CLOUDY    77  76  96 NW5       29.89R
CLARKSVILLE*   FAIR      81  70  69 SW5       29.87S
SOUTH HILL*    MOSUNNY   83  68  61 SW7       29.92S
LAWRENCEVILLE* NOT AVBL
EMPORIA*         N/A     82  68  61 S6        29.87F
$$

VAZ088>098-022100-
SOUTHEAST VIRGINIA

CITY           SKY/WX    TMP DP  RH WIND       PRES   REMARKS
NORFOLK        PTSUNNY   83  73  72 SW7       29.84S
VIRGINIA BEACH TSTM      81  66  60 S15G24    29.83F
NORFOLK NAVAL  PTSUNNY   85  68  56 SW12G20   29.85S HAZE
WEST POINT*    PTSUNNY   76  72  86 CALM      29.86F
SALUDA*        CLOUDY    73  71  94 N8        29.86S
NEWPORT NEWS   PTSUNNY   84  70  62 W9        29.84S
LANGLEY AFB    PTSUNNY   85  70  60 SW14      29.82F
FORT EUSTIS    MOSUNNY   84  72  65 SW8       29.82F
WILLIAMSBURG*  PTSUNNY   88  72  58 W12G18    29.84F
HR EXEC AP*    FAIR      84  70  61 SW8       29.85F
FRANKLIN*      PTSUNNY   85  70  60 SW9       29.85F
WAKEFIELD      MOSUNNY   85  68  56 SW7       29.84F
$$

VAZ020-022-025-037-045-022100-
WEST CENTRAL AND SOUTHWEST VIRGINIA

CITY           SKY/WX    TMP DP  RH WIND       PRES   REMARKS
STAUNTON*      CLOUDY    74  63  69 CALM      29.96F
WAYNESBORO*    MOCLDY    69  63  81 CALM      29.96F
HOT SPRINGS VA DRZL/FOG  63  63 100 W6        30.03F VSB 3/4
LYNCHBURG      CLOUDY    74  65  73 VRB6      29.94R
DANVILLE       CLOUDY    73  69  87 NW12      29.92R
SOUTH BOSTON*  CLOUDY    78  71  77 MISG      29.88F
MARTINSVILLE   LGT RAIN  70  70 100 CALM      29.96F
ROANOKE        LGT RAIN  74  63  68 N6        29.96S
BLACKSBURG     LGT RAIN  69  66  90 NE3       30.01S
DUBLIN*        RAIN      68  67  96 CALM      29.99F
MARION*        DRIZZLE   69  66  90 W9G18     30.02S
HILLSVILLE*    CLOUDY    68  65  88 NW8       29.98F
RICHLANDS*     CLOUDY    68  66  94 W3        30.00F
WISE*          CLOUDY    72  66  83 SW10      30.00F
ABINGDON*      CLOUDY    73  69  86 W7        29.99F
$$

MDZ021>025-VAZ099-100-022100-
SOUTHERN MARYLAND AND THE DELMARVA PENINSULA

CITY           SKY/WX    TMP DP  RH WIND       PRES   REMARKS
PATUXENT RIVER CLOUDY    74  66  76 N12       29.87F
BAY BRIDGE APT   N/A     72  64  78 N3        29.90S
LEONARDTOWN    CLOUDY    72  64  78 N3        29.90S
DOVER          CLOUDY    69  68  97 NE3       29.88S
GEORGETOWN     CLOUDY    71  67  87 NE6       29.88F
EASTON         PTSUNNY   72  70  94 N6        29.93S FOG
CAMBRIDGE      CLOUDY    72  64  78 N5        29.88S
SALISBURY      CLOUDY    73  68  84 NE8       29.86F
OCEAN CITY     CLOUDY    74  70  87 N8        29.85F FOG
WALLOPS ISLAND LGT RAIN  75  74  96 NE5       29.86F
ACCOMACK*      HVY RAIN  75  73  94 N8        29.85R
$$

NCZ012>017-030>032-022100-
NORTH CENTRAL AND EASTERN NORTH CAROLINA

CITY           SKY/WX    TMP DP  RH WIND       PRES   REMARKS
ROANOKE RAPIDS MOCLDY    82  70  65 SW15      29.86F
RALEIGH        PTSUNNY   85  69  58 W13       29.89F
ELIZABETH CITY CLOUDY    84  71  65 SW14G23   29.86F
AHOSKIE*       MOSUNNY   81  72  74 NW3       29.86F
EDENTON*         N/A     87  70  55 SW12      29.86F
CURRITUCK*     CLOUDY    86  66  52 SW13G18   29.85F
KILL DEVIL HLS CLOUDY    90  67  46 SW12G20   29.85F
MANTEO         CLOUDY    88  69  53 SW17      29.87S
CAPE HATTERAS  MOSUNNY   83  75  77 SW16G24   29.92F
TARBORO*         N/A     86  67  53 SW9       29.88F
GOLDSBORO      PTSUNNY   88  69  53 SW9G20    29.87F
WASHINGTON     MOSUNNY   89  69  51 SW12G20   29.88S
GREENVILLE     MOSUNNY   90  66  45 W10G22    29.90F
NEW BERN       MOSUNNY   90  70  51 SW9       29.90F HX  95
WILMINGTON     MOSUNNY   88  71  57 SW17G24   29.93F
$$

VAZ048-022100-
ELSEWHERE

CITY           SKY/WX    TMP DP  RH WIND       PRES   REMARKS
HARRISBURG PA  CLOUDY    74  65  73 SE5       29.89S
BALTIMORE      CLOUDY    74  64  71 SE5       29.90R
ANNAPOLIS      CLOUDY    73  65  75 N5        29.90R
ANDREWS AFB    LGT RAIN  72  66  82 NE6       29.90S
PHILADELPHIA   CLOUDY    75  62  64 E5        29.89S
HENDERSON NC   LGT RAIN  72  68  88 S9        29.90R
GREENSBORO     LGT RAIN  81  63  54 NW9       29.90S
ROCKY MOUNT    PTSUNNY   87  67  51 SW13G21   29.88F
$$

VAZ100-022100-
MARINE

STATION/POSITION TIME  TEMP    WIND        PRES    WAVE   SWELL
                       AIR SEA DIR/SP/G            HT/PER HT/PER
                 (UTC) (F)     (DEG/KT/KT) (MB)    (FT/S) (FT/S)
BRANDYWINE LGT   1900   70 74   80/ 12/ 13 1012.2S
CAPE MAY NJ      1900   69 77   60/  6/  8 1011.7R
LEWES DE         1900   70 73   60/  9/ 11 1011.8S
15NM E FENWICK I 1950   72 73              1010.5F   4/ 8
OCEAN-CITY-INLET 1900   72 72   20/  6/  8 1011.1R
WACHAPREAGUE VA  1900   82 83  260/  4/  8 1010.8S
THOMAS POINT MD  2000   71 76   20/  7/  8 1012.9
GOOSES REEF MD   2000   74 78   50/ 10/ 12 1013.1R
COVE POINT MD    1900   72      30/ 10/ 13 1012.6F
SOLOMONS ISLAND  1900      79                N/A
BISHOPS HEAD MD  1900   75      10/  8/ 12 1011.3R
PINEY POINT MD   1900           40/ 10/ 11   N/A
CAMBRIDGE MD     1900   72 79   50/  7/  8 1011.8R
LEWISETTA VA     1900   76 80   40/  6/ 12 1011.2R
RAPPAHANNOCK LGT 1900          340/ 12/ 18 1011.1F
STINGRAY PT      2000   75 80   10/ 12/ 16 1011.2R   2/ 2
YORK RVR RNG VA  1900   83     240/  9/ 10 1009.9F
YORKTOWN VA      1900   82 79  220/ 11/ 14 1010.0F
JAMESTOWN VA     2000   83 83  240/ 10/ 16   N/A
DOMINION TERM VA 1900   83     250/ 12/ 15 1010.3F
KIPTOPEKE VA     1900      83  260/  7/  8   N/A
CHES BAY BRIDGE  1900   83 78  250/ 13/ 14 1009.9F
CAPE HENRY VA    1900   85     210/  5/  8 1008.7F
CHESAPEAKE LGHT  1900   80     200/ 11/ 11 1011.1F
WILLOUBY STN VA  1900   82     240/ 12/ 14 1011.2F
CAPE HENRY BUOY  1928      78                N/A     3/ 8
1ST LANDING BUOY 2000      78              1010.1F   2/ 4
CAPE CHARLES BUO 1926      75                N/A     2/ 8   2/ 8
OFFSHORE WE BUOY 1911      78                N/A     4/ 8   3/ 8
64NM E OF VA BCH 1950   79 77  200/ 17/ 21 1010.4F   5/ 8   3/ 8
DUCK PIER NC     1900   85 62  220/ 14/ 17 1010.4F
44100 DUCK FRF   1924      78                N/A     3/ 9
44056 DUCK FRF   1911      71                N/A     2/ 8
OREGON INLET NC  1900   82 83  190/ 21/ 25 1012.0F
HATTERAS NC      1900   83 79  210/ 10/ 15 1013.0F
DIAMOND SHLS NC  1950   82 83  220/ 21/ 25 1012.8F   5/ 4   2/ 8
CAPE LOOKOUT NC  2000   83     210/ 15/ 21 1013.3F
$$


USA.gov is the U.S. government's official web portal to all federal, state and local government web resources and services.